FW7161 Weather Reports


time (UTC)temp
F
wind
direction
speed
knots
gust
knots
rain 1hr
in
rain 24hr
in
rain mn
in
humidity
%
barometer
mb
20260505070856 44 336 0.0 0.0 0.00 0.00 0.00 87 1016.8
20260505065356 44 356 0.0 0.0 0.00 0.00 0.00 86 1016.6
20260505063855 44 35 0.0 0.0 0.00 0.00 0.00 85 1016.6
20260505062355 44 38 0.0 0.0 0.00 0.00 0.00 84 1016.5
20260505060853 45 11 0.0 0.0 0.00 0.00 0.00 78 1016.8
20260505055354 46 320 0.0 0.0 0.00 0.02 0.02 81 1017.1
20260505053852 46 359 0.0 0.0 0.00 0.02 0.02 79 1017.0
20260505052348 46 338 0.0 0.0 0.00 0.02 0.02 80 1016.8
20260505050847 46 357 0.0 0.0 0.00 0.02 0.02 78 1016.5
20260505040833 47 33 0.0 0.0 0.00 0.02 0.02 77 1016.0
20260505035328 47 14 0.0 0.0 0.00 0.02 0.02 79 1016.3
20260505033825 47 4 5.2 7.0 0.00 0.02 0.02 74 1015.5
20260505032321 47 2 2.6 5.2 0.00 0.02 0.02 74 1015.5
20260505030819 47 7 0.9 4.3 0.00 0.02 0.02 76 1015.7
20260505025314 47 330 0.9 2.6 0.00 0.02 0.02 78 1015.7
20260505023812 47 357 0.0 1.7 0.00 0.02 0.02 77 1015.2
20260505022309 47 354 1.7 5.2 0.00 0.02 0.02 76 1015.2
20260505020804 48 5 4.3 5.2 0.07 0.02 0.02 74 1015.3
20260505015300 48 3 2.6 2.6 0.05 0.01 0.01 69 1015.4
20260505013756 51 356 2.6 4.3 0.00 0.00 0.00 57 1015.2
20260505012255 53 83 1.7 5.2 0.00 0.00 0.00 55 1014.9
20260505010755 56 0 3.5 5.2 0.00 0.00 0.00 42 1014.2
20260505005251 57 328 0.0 0.0 0.00 0.00 0.00 40 1013.9
20260505003748 58 339 0.0 0.9 0.00 0.00 0.00 39 1013.8
20260505002245 58 353 4.3 5.2 0.00 0.00 0.00 38 1013.1
20260505000742 59 7 4.3 5.2 0.00 0.00 0.00 38 1013.1
20260504235238 62 90 0.0 0.0 0.00 0.00 0.00 34 1013.2
20260504233735 62 44 0.0 0.0 0.00 0.00 0.00 35 1013.5
20260504232231 62 344 0.0 0.0 0.00 0.00 0.00 35 1013.2
20260504230726 62 268 0.0 0.0 0.00 0.00 0.00 36 1013.2
20260504225225 62 326 0.0 0.0 0.00 0.00 0.00 33 1013.3
20260504223721 62 127 0.0 0.9 0.00 0.00 0.00 33 1013.5
20260504222217 61 113 0.0 0.0 0.00 0.00 0.00 33 1013.2
20260504220713 60 108 2.6 4.3 0.00 0.00 0.00 33 1013.6
20260504215211 64 210 0.0 0.0 0.00 0.00 0.00 28 1013.2
20260504213712 64 117 3.5 4.3 0.00 0.00 0.00 25 1012.5
20260504212208 66 291 0.0 0.0 0.00 0.00 0.00 22 1012.6
20260504210704 66 332 0.0 0.0 0.00 0.00 0.00 23 1012.6
20260504205201 68 263 0.0 0.0 0.00 0.00 0.00 21 1012.8
20260504203656 68 16 0.0 0.9 0.00 0.00 0.00 22 1013.1
20260504202151 66 281 3.5 4.3 0.00 0.00 0.00 23 1013.1
20260504200649 67 337 0.0 0.0 0.00 0.00 0.00 22 1013.1
20260504195149 70 352 0.0 0.0 0.00 0.00 0.00 19 1013.2
20260504193644 68 229 0.0 0.9 0.00 0.00 0.00 21 1013.5
20260504192144 68 58 0.0 0.0 0.00 0.00 0.00 20 1013.3
20260504190640 68 254 1.7 5.2 0.00 0.00 0.00 22 1013.9
20260504185136 67 237 0.0 0.0 0.00 0.00 0.00 23 1014.1
20260504183636 67 133 0.0 0.0 0.00 0.00 0.00 22 1014.3
20260504182134 67 294 3.5 4.3 0.00 0.00 0.00 24 1014.4
20260504180634 66 294 0.9 1.7 0.00 0.00 0.00 26 1014.4
20260504175131 65 300 0.0 0.0 0.00 0.00 0.00 23 1014.8
20260504173629 65 347 0.0 0.0 0.00 0.00 0.00 26 1015.0
20260504172125 68 291 3.5 4.3 0.00 0.00 0.00 25 1015.2
20260504170620 66 307 4.3 4.3 0.00 0.00 0.00 27 1015.4
20260504150600 59 272 4.3 5.2 0.00 0.00 0.00 34 1015.9
20260504140545 60 288 2.6 4.3 0.00 0.00 0.00 33 1015.8
20260504130533 51 293 0.0 0.0 0.00 0.00 0.00 43 1016.0
20260504110514 45 301 0.0 0.0 0.00 0.00 0.00 51 1016.0
20260504100510 44 279 0.0 0.0 0.00 0.00 0.00 55 1016.5
20260504081944 47 251 0.0 0.0 0.00 0.00 0.00 52 1016.9
20260504080440 48 292 0.0 0.0 0.00 0.00 0.00 49 1016.9